sat.trackr.live / text

‹ back to catalog

GALAXY 17 (G-17)

NORAD 31307 · 2007-016B

PAYLOAD ACTIVE UNKNOWN

§ Identity

Operator
Country
US
Launch date
2007-05-04
Launch site
FRGUI
Launch vehicle
Mass (kg)
RCS (m²)
12.68

Purposes: comms

External: N2YO · Heavens-Above · Gunter

§ Orbital elements

Epoch: 2026-09-19T21:42:01.609920Z

Period
1,436.09 min
Inclination
3.2038°
Eccentricity
0.0003320
Mean motion
1.00272179 rev/d
Perigee alt
35,772.5 km
Apogee alt
35,800.5 km
Semi-major
42,164.6 km
B*
0.0000e+0
RAAN
78.6342°
Arg perigee
125.6031°
Mean anomaly
35.0947°
Rev number
7,075

§ Raw data

GALAXY 17 (G-17)1 31307U 07016B   26262.90418530 -.00000210  00000+0  00000+0 0  99982 31307   3.2038  78.6342 0003320 125.6031  35.0947  1.00272179 70754

JSON: /api/v1/satellites/31307 · /tle

For live sub-satellite position, see the globe view (requires WebGL).

§ Visibility from observer

Set your observer location to see the next 7 days of passes ≥ 10°. The values pass through the URL so the page stays shareable.

No JS? Fill the form by hand. The geolocation button needs JavaScript.